TimeEDT,TemperatureF,Dew PointF,Humidity,Sea Level PressureIn,VisibilityMPH,Wind Direction,Wind SpeedMPH,Gust SpeedMPH,PrecipitationIn,Events,Conditions,WindDirDegrees,DateUTC
12:56 AM,57.9,51.1,78,30.09,10.0,ENE,13.8,19.6,N/A,,Overcast,60,2012-10-08 04:56:00
1:56 AM,57.0,48.9,74,30.09,10.0,ENE,10.4,-,N/A,,Overcast,70,2012-10-08 05:56:00
2:56 AM,57.0,48.0,72,30.09,10.0,ENE,13.8,21.9,N/A,,Overcast,70,2012-10-08 06:56:00
3:42 AM,55.4,48.2,77,30.12,10.0,NE,6.9,-,N/A,,Overcast,40,2012-10-08 07:42:00
3:56 AM,55.9,48.0,75,30.10,10.0,ENE,9.2,-,N/A,,Overcast,60,2012-10-08 07:56:00
4:23 AM,55.4,48.2,77,30.12,10.0,NE,6.9,-,N/A,,Overcast,40,2012-10-08 08:23:00
4:56 AM,55.9,46.9,72,30.09,10.0,NE,9.2,16.1,N/A,,Overcast,50,2012-10-08 08:56:00
5:56 AM,55.0,46.0,72,30.11,10.0,ENE,9.2,18.4,N/A,,Overcast,60,2012-10-08 09:56:00
6:42 AM,55.4,46.4,72,30.13,10.0,NE,10.4,-,N/A,,Overcast,50,2012-10-08 10:42:00
6:56 AM,54.0,46.0,75,30.12,10.0,ENE,8.1,-,N/A,,Overcast,60,2012-10-08 10:56:00
7:56 AM,53.1,43.0,69,30.13,10.0,ENE,12.7,-,N/A,,Overcast,60,2012-10-08 11:56:00
8:12 AM,53.6,42.8,67,30.14,10.0,ENE,10.4,-,N/A,,Overcast,60,2012-10-08 12:12:00
8:26 AM,53.6,42.8,67,30.14,10.0,ENE,9.2,-,N/A,,Overcast,60,2012-10-08 12:26:00
8:56 AM,53.1,43.0,69,30.14,10.0,NE,15.0,-,N/A,,Overcast,50,2012-10-08 12:56:00
9:56 AM,53.1,42.1,66,30.17,10.0,NE,9.2,-,N/A,,Overcast,40,2012-10-08 13:56:00
10:56 AM,55.0,42.1,62,30.17,10.0,ENE,13.8,19.6,N/A,,Overcast,60,2012-10-08 14:56:00
11:56 AM,54.0,43.0,66,30.17,10.0,ENE,15.0,-,N/A,,Overcast,60,2012-10-08 15:56:00
12:56 PM,54.0,44.1,69,30.17,10.0,NE,10.4,-,N/A,,Overcast,50,2012-10-08 16:56:00
1:56 PM,54.0,44.1,69,30.14,10.0,NE,9.2,-,N/A,,Overcast,50,2012-10-08 17:56:00
2:56 PM,55.0,45.0,69,30.12,10.0,NE,8.1,-,N/A,,Overcast,50,2012-10-08 18:56:00
4:56 PM,54.0,46.0,75,30.11,10.0,NE,8.1,-,N/A,,Overcast,40,2012-10-08 20:56:00
5:56 PM,53.1,46.9,80,30.12,10.0,NE,5.8,-,N/A,,Overcast,50,2012-10-08 21:56:00
6:56 PM,52.0,46.0,80,30.14,10.0,NE,6.9,-,N/A,,Overcast,40,2012-10-08 22:56:00
7:25 PM,51.8,46.4,82,30.14,10.0,ENE,9.2,-,N/A,,Overcast,60,2012-10-08 23:25:00
7:56 PM,52.0,46.9,83,30.14,10.0,ENE,9.2,-,N/A,,Overcast,60,2012-10-08 23:56:00
8:56 PM,51.1,46.0,83,30.14,10.0,ENE,9.2,-,N/A,,Overcast,60,2012-10-09 00:56:00
10:56 PM,51.1,46.9,86,30.17,10.0,ENE,5.8,-,N/A,,Overcast,70,2012-10-09 02:56:00
11:16 PM,51.8,46.4,82,30.17,10.0,East,6.9,-,N/A,,Overcast,80,2012-10-09 03:16:00
11:56 PM,51.1,46.0,83,30.17,10.0,ENE,6.9,-,N/A,,Overcast,60,2012-10-09 03:56:00